Flag Weather past 2 weeks in Altenburg, Thuringia, Germany

Now
30 °F

Fog.


Feels Like: 30 °F
Forecast: 29 / 40 °F
Wind: 1 mph from East

Location: Gera-Leumnitz

Current Time: Nov 26, 2014 at 1:51:00 AM

Latest Report: Nov 26, 2014 at 1:00 AM


Visibility: 1 mi

Pressure: 30.28 "Hg

Humidity: 98%

Dew point: 30 °F

Location of AltenburgLocation

Historic Weather in Altenburg — Graph

°F

Altenburg temperature yesterday

Maximum temperature yesterday: 43 °F (at 3:00 PM)
Minimum temperature yesterday: 30 °F (at 9:00 AM)
Average temperature yesterday: 35 °F

Past Weeks' High & Low Weather Summary

 TemperatureHumidityPressure
High56 °F (Nov 14, 2:00 PM)100% (Nov 11, 7:00 AM)30.39 "Hg (Nov 11, 7:00 AM)
Low30 °F (Nov 26, 12:00 AM)65% (Nov 23, 2:00 PM)29.54 "Hg (Nov 16, 7:00 AM)
Average42 °F92%30.00 "Hg
* Reported Midnight between Nov 10 and Nov 11 — Midnight between Nov 25 and Nov 26, Altenburg, Weather by CustomWeather, © 2014

Note: Actual official high and low records may vary slightly from our data, if they occured in-between our weather recording intervals... More about our weather records

Advertising

Altenburg weather history for previous 24 hours

 ConditionsComfort  
Time TempWeatherWind HumidityBarometerVisibility
12:00 AM
Nov 26
30 °FFog.2 mph96%30.30 "Hg2 mi
11:00 PM
Nov 25
30 °FFog.2 mph97%30.32 "Hg3 mi
10:00 PM31 °FClear.3 mph94%30.32 "Hg5 mi
9:00 PM33 °FFog.5 mph97%30.32 "Hg1 mi
8:00 PM37 °FFog.6 mph99%30.31 "Hg1 mi
7:00 PM38 °FFog.6 mph98%30.31 "Hg2 mi
6:00 PM38 °FPassing clouds.6 mph95%30.31 "Hg6 mi
5:00 PM40 °FPassing clouds.5 mph88%30.31 "Hg9 mi
4:00 PM42 °FPartly sunny.2 mph84%30.32 "Hg17 mi
3:00 PM43 °FPartly sunny.2 mph80%30.32 "Hg16 mi
2:00 PM42 °FScattered clouds.2 mph83%30.33 "Hg11 mi
1:00 PM40 °FFog.1 mph82%30.34 "Hg3 mi
12:00 PM36 °FFog.1 mph91%30.37 "Hg2 mi
11:00 AM32 °FFog.3 mph100%30.39 "Hg0 mi
10:00 AM31 °FFog.2 mph99%30.39 "Hg0 mi
9:00 AM30 °FFog.5 mph98%30.39 "Hg2 mi
8:00 AM31 °FFog.5 mph98%30.38 "Hg3 mi
7:00 AM31 °FFog.3 mph98%30.38 "Hg4 mi
6:00 AM31 °FFog.3 mph99%30.39 "Hg2 mi
5:00 AM31 °FPassing clouds.3 mph99%30.38 "Hg2 mi
4:00 AM32 °FPassing clouds.3 mph99%30.37 "Hg0 mi
3:00 AM33 °FOvercast.3 mph98%30.37 "Hg0 mi
2:00 AM34 °FPassing clouds.3 mph99%30.38 "Hg0 mi
1:00 AM35 °FPassing clouds.3 mph99%30.38 "Hg3 mi
Weather by CustomWeather, © 2014

See weather overviewHow to use our weather pages